Theta_e
321 321 323 325 326 325 325 324 328 326 327 331 332 333 334 333 332 333 335 334 335 339 339 341 342 347 349 352 352 351 348 346 343 338 337 343 343 339 335 335 333 331 330 330
321 321 322 323 324 327 327 323 326 324 326 326 332 332 332 332 332 333 335 335 334 336 338 338 341 345 348 351 352 351 349 348 343 338 337 343 341 335 334 334 333 331 331 332
323 323 325 326 326 327 329 329 327 327 326 327 332 333 333 332 333 334 335 339 333 334 335 338 340 344 347 350 351 351 350 346 345 345 341 340 336 336 333 333 332 332 332 333
323 325 329 326 330 330 335 336 335 334 326 328 330 333 333 330 331 330 332 335 340 336 336 341 343 345 347 349 351 350 347 345 343 341 341 340 336 337 335 334 334 333 332 332
325 324 327 334 336 334 333 335 334 335 333 333 330 331 331 328 328 329 328 327 331 343 344 342 346 348 348 347 348 347 345 343 344 342 341 339 338 337 336 335 335 334 333 333
329 327 331 333 333 335 331 336 333 333 333 332 331 335 331 330 328 328 326 329 331 335 339 342 343 349 347 343 344 344 344 344 344 341 340 339 339 336 337 336 336 335 335 335
334 336 334 334 334 333 336 333 334 331 330 330 331 329 327 328 329 330 331 335 337 340 343 343 346 348 344 341 342 343 343 342 343 340 339 337 336 334 331 331 335 336 335 335
339 338 339 332 334 337 332 328 330 331 331 331 331 332 330 330 328 327 327 329 334 339 347 346 346 346 340 340 341 341 341 341 339 338 337 335 335 331 329 329 330 335 334 333
338 335 330 331 330 329 328 329 329 330 329 330 333 330 330 329 331 334 335 337 338 339 344 346 344 344 339 339 340 340 340 338 333 332 329 328 328 330 329 327 330 334 332 329
335 331 333 330 326 326 326 326 326 326 326 326 330 337 338 339 339 337 336 336 340 341 339 339 340 340 339 339 340 340 335 333 332 333 333 331 329 328 329 332 333 330 328 330
334 333 329 324 325 326 323 323 323 323 325 327 330 334 340 338 338 337 335 336 338 336 336 336 338 337 338 337 338 335 333 332 331 329 328 329 331 334 334 332 330 330 329 327
335 332 327 325 322 321 321 320 320 320 320 318 320 324 334 337 336 333 332 335 335 333 334 334 333 333 334 335 336 332 330 327 326 326 326 328 330 327 329 327 324 325 323 322
331 328 325 323 322 322 321 320 319 318 318 318 318 318 319 319 326 334 333 334 333 332 332 332 332 332 329 327 326 326 327 329 328 326 326 329 328 326 318 317 319 319 318 317
324 322 321 321 320 317 317 317 315 314 314 315 317 318 317 317 319 324 333 334 334 331 330 329 327 326 325 326 326 325 326 327 327 328 328 329 327 326 322 317 314 314 314 313
317 318 317 316 315 315 314 314 314 314 313 313 315 315 316 315 318 324 328 333 333 331 331 330 328 327 328 326 324 332 330 329 329 329 330 329 324 323 321 317 315 314 313 313
315 316 316 316 316 316 316 315 315 314 313 313 314 315 315 316 321 326 330 332 329 327 329 328 328 327 331 332 332 331 330 329 329 329 328 326 323 321 319 318 316 315 315 315
316 317 316 316 315 315 315 314 314 314 315 314 315 317 317 318 321 325 328 330 330 328 327 330 333 334 334 331 329 326 325 324 328 328 327 326 325 324 323 319 317 317 316 314
316 316 315 316 316 316 314 313 315 317 316 316 320 319 318 318 321 325 327 329 331 331 332 333 334 332 325 323 324 326 325 324 323 323 325 324 323 322 321 321 318 315 313 310
318 318 318 318 318 316 316 316 317 318 319 321 322 321 320 321 326 326 328 327 327 325 327 327 326 325 325 328 325 323 322 322 322 322 323 322 320 319 318 317 315 314 312 308
318 319 320 319 320 319 318 319 319 319 319 321 321 322 322 323 326 326 326 324 324 325 324 327 327 326 325 324 322 322 321 321 322 321 320 319 318 317 317 316 316 314 312 310
318 319 319 318 317 318 318 317 316 317 317 317 316 318 321 323 325 325 322 319 324 324 325 325 325 323 321 318 317 318 316 315 315 316 318 317 316 314 312 313 314 314 313 311
315 316 317 317 316 315 317 318 318 318 318 319 320 320 319 319 323 323 323 321 322 324 323 324 324 321 317 314 314 314 310 309 310 312 314 314 313 312 312 311 311 311 312 312
314 315 315 315 315 316 317 316 318 319 319 319 319 320 320 320 320 319 319 321 322 323 323 322 322 320 317 316 312 310 308 307 308 308 310 311 313 312 311 311 311 310 309 309
314 315 314 315 315 313 312 315 318 318 319 319 318 316 317 317 319 321 321 321 321 321 320 320 320 319 317 316 312 309 307 306 306 306 307 309 309 308 309 311 308 306 308 308
314 315 314 313 312 311 312 315 317 318 320 319 320 320 318 317 316 318 320 320 320 320 319 317 317 317 316 314 311 308 306 306 305 304 304 305 305 306 307 306 305 306 306 307
313 314 314 313 312 313 314 314 314 316 317 316 318 319 319 318 316 316 316 318 319 318 317 316 315 315 315 314 310 308 308 306 306 305 303 303 303 304 304 304 304 304 305 306
313 312 312 312 313 314 314 315 315 315 316 315 316 317 317 318 318 317 316 316 316 315 315 316 315 314 314 312 310 309 308 306 306 305 304 303 303 303 303 302 302 303 304 304
Wind_Speed
20 15 6 6 6 7 7 9 9 8 10 10 12 13 14 14 9 12 13 12 15 17 17 21 24 26 29 31 32 38 38 40 45 43 39 36 32 31 31 28 25 19 17 17
8 12 13 10 14 12 14 6 4 8 7 8 14 5 5 11 12 10 10 16 15 17 15 15 24 28 32 33 34 35 38 41 33 41 37 38 32 30 30 31 28 22 23 22
17 6 7 5 8 16 7 1 7 6 10 6 4 8 12 12 14 14 10 9 10 11 11 15 21 24 28 31 30 35 39 31 43 45 44 42 36 31 29 32 29 27 26 24
12 5 7 5 4 13 10 4 3 4 5 7 9 19 14 6 15 10 9 10 9 8 12 24 24 24 26 28 32 33 31 31 32 35 47 39 36 32 32 31 30 28 28 25
6 5 3 3 4 4 8 4 3 1 5 2 4 5 5 5 4 10 9 8 9 20 21 23 23 27 28 27 30 31 26 31 33 50 42 35 34 32 34 31 27 28 27 26
3 7 5 3 6 11 10 2 7 5 6 4 3 7 2 6 3 1 4 8 10 12 8 10 17 20 24 23 26 27 29 38 43 42 33 30 33 32 28 30 28 31 23 19
3 4 3 4 14 7 7 5 7 4 6 13 8 4 4 8 8 4 5 2 4 7 12 10 11 19 21 23 28 32 27 28 34 22 17 12 8 4 9 20 27 24 14 20
2 4 2 15 4 6 3 5 2 5 7 11 8 7 8 9 8 8 8 11 14 8 7 6 12 19 17 20 21 22 26 25 22 17 16 14 13 10 5 10 30 13 12 20
2 3 4 6 8 5 2 14 5 14 8 8 13 10 10 9 10 9 7 9 17 6 4 7 14 22 23 20 18 21 23 19 12 11 9 4 4 12 17 23 29 18 19 21
4 4 6 6 7 5 5 9 7 7 8 9 8 10 9 8 6 6 7 6 9 6 2 6 18 16 19 20 21 22 21 19 12 3 3 6 3 10 13 20 24 23 21 17
6 3 2 12 10 4 7 10 13 11 10 11 10 9 7 9 10 7 5 10 10 9 5 8 15 20 25 30 30 26 14 8 5 3 5 8 7 12 17 20 22 17 13 12
5 6 10 3 6 6 16 11 12 15 14 12 11 12 8 7 5 6 7 2 11 15 21 19 24 29 28 18 22 25 17 19 8 14 23 22 23 14 12 13 13 11 9 10
8 4 8 8 8 11 17 14 12 13 7 9 13 11 8 5 7 1 4 2 6 21 26 28 29 29 27 24 25 28 25 16 17 25 25 22 21 16 14 10 9 7 8 8
6 6 13 8 4 6 10 7 8 8 7 7 8 12 13 8 11 13 2 6 7 10 14 23 28 31 29 24 18 11 14 19 22 26 29 26 24 19 15 17 17 13 11 9
14 11 6 5 5 7 7 7 10 7 5 7 7 5 7 7 7 15 17 12 18 20 21 23 21 23 22 17 14 11 15 17 18 18 19 17 17 18 19 17 16 14 11 8
7 10 11 12 8 8 8 9 7 7 7 5 5 9 13 14 12 14 12 15 20 17 26 21 19 16 15 16 16 13 11 9 9 11 11 13 17 16 14 13 13 14 13 10
8 8 9 7 8 8 7 6 5 6 6 6 8 16 16 16 16 15 13 11 20 20 22 22 22 17 18 15 15 11 11 11 12 15 16 16 14 15 15 17 18 15 13 11
7 6 7 6 6 6 7 6 6 9 6 13 15 16 12 9 7 11 7 10 15 13 17 19 19 18 16 12 10 8 6 6 7 11 15 15 16 17 17 15 17 17 14 12
8 7 7 7 7 4 4 5 8 12 10 13 14 12 16 10 8 5 9 13 15 15 19 15 13 12 10 9 7 6 5 5 6 7 12 14 16 16 19 19 18 19 19 17
6 6 7 6 7 6 6 11 13 9 11 12 14 15 10 10 6 7 12 10 6 5 14 11 13 10 8 6 4 5 5 5 5 6 8 10 11 13 15 16 17 19 20 19
4 4 4 5 6 8 9 9 10 10 14 9 8 9 10 8 7 2 1 2 3 2 10 9 13 10 8 8 7 8 6 4 3 5 8 10 10 10 9 9 12 14 16 19
4 4 5 6 5 7 11 9 7 7 7 6 5 5 5 3 2 1 4 3 3 6 7 8 9 9 9 8 8 9 6 3 2 5 8 9 10 11 10 8 11 13 15 17
5 5 8 9 8 10 12 9 9 8 8 7 5 3 5 6 4 2 0 2 6 7 7 8 10 8 7 6 7 5 2 1 3 6 12 17 15 11 11 11 11 14 17 20
8 9 9 10 9 7 6 10 10 8 4 4 4 6 6 5 3 5 7 4 7 8 7 6 7 8 9 7 5 3 2 4 5 3 3 5 9 10 13 15 15 15 17 20
10 10 11 10 8 6 7 9 11 8 7 5 4 4 5 6 5 3 3 5 10 10 10 9 10 12 11 9 8 6 3 1 6 9 9 9 9 10 12 14 16 17 18 21
13 12 13 15 15 13 9 8 7 10 10 10 9 7 8 7 4 3 3 6 11 13 15 13 12 14 15 14 13 11 8 8 9 14 14 13 11 10 10 12 15 17 19 22
16 12 10 11 8 8 8 10 11 14 9 9 12 13 10 10 11 12 12 11 12 13 14 16 17 18 18 18 18 17 16 14 11 11 13 15 16 15 14 11 13 15 17 23
Wind_Direction
225 215 189 218 207 204 172 177 171 211 191 212 205 200 204 200 183 187 199 205 201 203 208 210 209 203 204 208 202 200 197 196 202 203 209 215 214 218 226 227 228 228 232 235
228 210 197 230 246 210 228 160 125 141 217 216 211 89 129 194 193 196 186 203 203 210 210 207 208 201 202 203 201 198 198 200 190 202 209 219 211 218 224 229 230 230 234 239
224 181 170 219 222 195 157 59 143 148 219 167 164 196 199 205 199 196 189 182 194 201 204 206 211 206 206 206 201 201 203 181 191 205 215 216 211 217 226 233 234 232 237 241
209 114 202 236 308 142 114 114 83 319 259 182 201 204 211 213 178 175 169 180 201 198 210 218 217 206 207 201 200 201 203 184 181 195 213 213 215 218 231 237 238 235 238 243
148 166 182 358 360 289 137 343 23 5 314 319 131 79 20 144 148 168 172 165 178 189 208 223 218 212 204 193 191 199 189 177 179 211 210 212 215 222 234 242 248 243 241 244
158 140 183 217 329 351 297 60 20 59 57 81 49 163 282 355 62 132 155 157 167 188 202 220 233 210 192 179 182 198 198 191 196 201 206 212 219 229 241 243 253 251 245 259
348 103 172 11 326 303 74 236 17 86 110 85 83 168 266 76 58 52 20 323 353 177 202 224 205 190 184 179 193 204 201 198 202 206 204 196 180 162 10 339 274 245 253 262
358 73 54 352 350 96 209 46 56 65 56 84 101 72 47 44 54 48 22 0 21 8 330 285 189 182 178 187 197 196 201 197 191 188 177 182 190 201 234 335 303 234 252 252
203 177 274 285 69 41 29 92 79 76 58 75 57 40 33 19 20 5 354 353 2 327 280 232 201 197 178 178 173 179 181 169 133 140 130 85 193 206 237 238 221 242 216 240
71 346 309 5 47 47 59 73 51 36 54 63 70 56 42 46 10 345 355 7 4 23 232 176 190 179 161 155 160 146 124 119 121 79 207 160 85 227 235 237 216 216 222 229
101 167 176 33 18 360 47 49 58 47 39 27 23 21 10 0 358 347 308 26 53 93 82 84 117 120 137 137 132 118 121 152 167 223 314 233 230 215 213 209 226 227 226 225
182 146 113 351 356 34 63 60 60 60 38 27 47 43 29 21 354 338 347 162 119 126 115 117 119 127 131 144 130 138 152 139 147 257 245 235 216 193 193 218 220 208 195 201
132 109 103 115 64 58 79 55 41 62 50 38 33 31 16 6 10 157 130 295 178 151 150 146 143 146 150 150 149 163 182 212 223 213 229 225 201 180 168 161 159 162 166 176
78 111 56 47 79 41 70 93 84 76 70 70 62 39 19 353 356 2 354 172 184 174 164 160 161 163 165 173 169 203 214 211 219 232 234 231 217 203 186 180 171 166 166 165
60 66 106 154 87 47 63 47 43 30 352 13 34 88 34 2 341 327 337 214 184 190 188 182 188 193 191 194 218 202 185 186 192 199 206 203 191 183 191 195 189 170 167 187
72 59 47 47 26 20 36 32 30 352 351 347 350 354 349 350 340 330 323 198 168 188 198 201 207 206 216 198 181 166 163 170 187 195 188 183 179 191 196 191 188 182 188 196
55 30 26 29 18 2 349 342 345 329 326 337 332 336 342 339 329 325 306 219 203 199 196 195 196 190 190 185 163 163 158 160 159 171 176 187 195 196 195 193 188 188 194 193
65 56 44 32 7 353 340 335 331 332 327 319 324 321 314 310 284 291 247 204 191 183 193 200 196 193 185 190 186 179 179 183 195 203 197 193 195 194 194 199 195 188 196 194
28 25 9 356 346 326 298 304 299 302 300 311 313 300 297 293 303 246 195 177 169 170 189 185 198 202 186 174 168 168 173 180 191 193 195 192 187 194 192 197 200 199 196 192
12 6 3 17 15 354 324 335 329 321 313 319 321 318 328 336 339 168 180 189 183 196 188 198 181 164 149 156 180 188 178 166 159 175 185 186 193 188 193 198 207 207 201 204
25 27 18 7 345 343 337 323 337 325 322 325 322 310 321 330 354 283 302 333 261 183 157 150 157 153 147 142 144 138 132 116 141 172 181 184 188 194 191 195 211 216 214 213
332 333 332 340 336 328 344 336 331 337 352 329 313 307 323 326 356 248 237 236 155 137 159 159 155 144 141 139 136 140 122 115 208 227 219 216 220 219 217 209 203 212 223 228
310 315 321 332 334 324 330 342 350 1 356 344 338 319 289 307 293 157 2 181 156 153 170 176 170 160 171 175 156 153 117 286 274 287 263 236 231 237 248 245 236 227 233 228
325 322 311 329 329 333 343 342 343 347 343 346 19 34 22 19 346 269 269 275 198 188 196 201 198 201 209 208 196 190 337 311 265 231 222 214 226 237 242 239 235 238 230 227
336 315 313 328 309 294 300 332 339 353 348 336 330 343 344 341 304 302 257 238 213 215 223 226 227 219 221 227 228 231 250 321 240 232 225 222 221 226 234 239 241 237 230 225
338 314 317 317 304 308 298 296 299 310 316 310 303 293 307 306 302 243 236 231 232 233 237 237 226 222 228 234 237 243 261 262 258 244 236 230 227 228 235 247 246 241 235 228
343 339 327 323 323 345 327 307 292 294 284 267 275 294 292 281 272 263 263 260 259 260 253 247 245 244 245 246 247 251 252 248 249 240 237 242 243 242 245 255 257 251 241 229